Location: Sewell
(39.7660°N, 75.1450°W)
Time: 07:10:39
(UTC-04:00)

ISS - Visible Passes

Search period start: 26 July 2014 00:00
Search period end: 05 August 2014 00:00
Orbit: 411 x 420 km, 51.6° (Epoch: 26 July)

Date Brightness Start Highest point End Pass type
(mag) Time Alt. Az. Time Alt. Az. Time Alt. Az.
26 Jul -0.7 03:00:04 16° NNW 03:00:34 16° NNW 03:02:48 10° NNE visible
26 Jul -0.1 04:37:20 10° NNW 04:38:24 11° N 04:39:27 10° NNE visible
27 Jul -0.3 02:12:54 17° N 02:12:54 17° N 02:14:14 10° NNE visible
27 Jul -0.1 03:48:13 10° NNW 03:49:17 11° N 03:50:21 10° NNE visible
28 Jul -0.2 02:58:48 10° NNW 03:00:11 12° N 03:01:35 10° NNE visible
28 Jul -0.2 04:36:20 10° NNW 04:38:04 13° NNE 04:39:48 10° NE visible
29 Jul -0.1 02:11:25 14° N 02:11:25 14° N 02:12:58 10° NNE visible
29 Jul 0.0 03:47:42 10° NNW 03:48:59 12° N 03:50:17 10° NNE visible
29 Jul -0.9 05:23:40 10° NW 05:26:36 27° NNE 05:29:32 10° E visible
30 Jul 0.3 01:24:16 11° NNE 01:24:16 11° NNE 01:24:24 10° NNE visible
30 Jul 0.1 02:58:52 10° NNW 02:59:53 11° N 03:00:54 10° NNE visible
30 Jul -0.4 04:35:05 10° NNW 04:37:38 20° NNE 04:40:12 10° ENE visible
31 Jul 0.1 02:10:01 11° NNW 02:10:47 11° N 02:11:53 10° NNE visible
31 Jul -0.1 03:46:31 10° NNW 03:48:38 16° NNE 03:50:45 10° NE visible
31 Jul -2.6 05:22:33 10° NW 05:25:53 62° NE 05:29:13 10° ESE visible
01 Aug 0.3 01:23:02 10° NNE 01:23:02 10° NNE 01:23:10 10° NNE visible
01 Aug 0.0 02:57:56 10° NNW 02:59:35 13° NNE 03:01:13 10° NE visible
01 Aug -1.6 04:33:52 10° NW 04:37:02 37° NNE 04:40:12 10° E visible
01 Aug -1.2 21:16:39 10° S 21:17:18 13° SSE 21:17:18 13° SSE visible
02 Aug 0.2 02:09:17 10° NNW 02:10:30 12° N 02:11:42 10° NNE visible
02 Aug -0.9 03:45:16 10° NNW 03:48:08 25° NNE 03:51:00 10° E visible
02 Aug -2.9 05:21:45 10° WNW 05:24:58 44° SW 05:28:11 10° SSE visible
02 Aug -3.4 22:03:10 10° SW 22:06:30 90° NNW 22:08:19 25° NE visible
02 Aug 0.0 23:41:13 10° WNW 23:41:28 11° WNW 23:41:28 11° WNW visible
03 Aug -0.4 02:56:41 10° NNW 02:59:10 19° NNE 03:01:38 10° ENE visible
03 Aug -3.4 04:32:52 10° NW 04:36:15 83° SW 04:39:36 10° SE visible
03 Aug -3.1 21:14:32 10° SSW 21:17:45 49° SE 21:21:00 10° ENE visible
03 Aug -0.9 22:51:51 10° W 22:54:38 24° NNW 22:57:25 10° NNE visible
04 Aug -2.6 03:46:25 37° NNW 03:47:27 55° NE 03:50:45 10° ESE visible
04 Aug -1.6 05:21:45 10° W 05:23:51 16° SW 05:25:56 10° S visible
04 Aug -1.6 22:02:37 10° W 22:05:43 35° NNW 22:08:49 10° NE visible
04 Aug 0.1 23:41:40 10° NW 23:43:12 13° N 23:44:17 11° N visible
